Temp
-8 -8 -7 -7 -8 -8 -8 -8 -8 -8 -8 -8 -8 -8 -8 -8 -8 -8 -8 -8 -7 -7 -8 -7 -7 -8 -8 -8 -8 -8 -7 -6 -6 -6 -6 -6 -6 -6 -6 -7 -7 -8 -8 -6 -6
-7 -7 -7 -7 -7 -7 -7 -7 -8 -8 -8 -8 -8 -8 -8 -8 -8 -8 -8 -8 -8 -8 -8 -8 -8 -7 -7 -8 -8 -8 -8 -7 -8 -7 -7 -7 -7 -6 -6 -6 -7 -8 -8 -8 -7
-8 -8 -8 -8 -8 -8 -8 -8 -8 -8 -8 -8 -8 -9 -9 -9 -9 -8 -8 -8 -8 -8 -8 -8 -8 -7 -7 -7 -7 -7 -7 -8 -8 -8 -8 -7 -7 -6 -7 -6 -6 -7 -8 -8 -8
-8 -8 -8 -8 -8 -9 -9 -9 -8 -9 -9 -9 -9 -9 -9 -9 -9 -9 -8 -8 -8 -8 -8 -8 -8 -8 -7 -7 -7 -8 -8 -8 -8 -8 -9 -8 -8 -7 -7 -7 -6 -7 -7 -8 -8
-8 -9 -9 -9 -9 -9 -9 -9 -9 -9 -9 -9 -9 -9 -9 -9 -10 -9 -9 -8 -8 -8 -8 -8 -8 -8 -7 -7 -8 -7 -7 -8 -8 -8 -8 -8 -8 -8 -7 -8 -7 -7 -7 -7 -8
-10 -10 -10 -10 -10 -10 -10 -10 -10 -9 -9 -9 -9 -9 -9 -8 -10 -10 -9 -9 -9 -9 -9 -8 -8 -8 -8 -7 -7 -7 -7 -7 -8 -8 -8 -8 -8 -8 -7 -7 -7 -7 -7 -7 -7
-10 -10 -10 -10 -10 -10 -10 -10 -10 -10 -10 -10 -9 -9 -9 -9 -9 -9 -10 -10 -10 -10 -9 -9 -9 -9 -8 -8 -7 -7 -7 -7 -7 -7 -8 -8 -8 -7 -7 -7 -8 -8 -8 -7 -8
-9 -10 -10 -10 -10 -10 -10 -10 -11 -11 -11 -11 -11 -10 -10 -10 -10 -10 -9 -10 -10 -10 -10 -10 -10 -9 -9 -8 -8 -8 -7 -7 -7 -7 -8 -8 -7 -7 -7 -7 -8 -8 -8 -8 -8
-10 -10 -10 -10 -10 -11 -11 -11 -11 -11 -11 -12 -12 -12 -12 -12 -11 -11 -10 -10 -10 -10 -11 -11 -11 -10 -10 -9 -8 -8 -7 -7 -8 -7 -8 -8 -8 -8 -8 -8 -8 -9 -8 -8 -8
-10 -10 -11 -11 -11 -11 -12 -12 -12 -13 -13 -14 -14 -14 -14 -13 -14 -13 -12 -11 -10 -10 -11 -11 -12 -11 -10 -9 -8 -8 -8 -8 -7 -8 -7 -8 -8 -9 -9 -9 -9 -9 -9 -9 -8
-11 -11 -11 -12 -12 -13 -13 -14 -14 -14 -14 -15 -16 -16 -16 -17 -15 -16 -15 -14 -12 -12 -11 -12 -13 -11 -10 -10 -10 -10 -9 -9 -9 -8 -8 -9 -9 -9 -9 -9 -9 -8 -8 -8 -8
-11 -12 -12 -13 -14 -14 -14 -14 -15 -16 -17 -19 -19 -20 -20 -20 -20 -20 -19 -18 -16 -15 -15 -15 -12 -11 -13 -12 -11 -11 -10 -9 -9 -8 -8 -9 -9 -9 -10 -9 -8 -8 -8 -8 -7
-12 -13 -13 -14 -15 -15 -15 -16 -18 -19 -20 -21 -21 -22 -22 -21 -21 -20 -20 -20 -19 -19 -17 -17 -15 -15 -14 -13 -12 -11 -11 -11 -10 -10 -9 -10 -10 -9 -10 -9 -9 -8 -8 -8 -7
-13 -14 -14 -15 -15 -15 -17 -19 -20 -21 -22 -23 -23 -23 -23 -22 -22 -21 -22 -21 -21 -20 -20 -18 -18 -17 -17 -15 -14 -13 -12 -13 -12 -11 -11 -11 -10 -10 -10 -9 -9 -9 -8 -8 -8
-14 -15 -15 -15 -15 -17 -19 -21 -22 -23 -23 -24 -23 -23 -23 -23 -22 -22 -21 -22 -20 -20 -21 -19 -19 -19 -18 -15 -14 -12 -14 -14 -14 -14 -14 -12 -11 -11 -9 -9 -9 -8 -8 -8 -8
-15 -15 -15 -15 -16 -19 -21 -22 -23 -23 -23 -23 -23 -23 -23 -22 -23 -22 -22 -22 -21 -21 -21 -20 -20 -19 -17 -18 -17 -17 -17 -16 -16 -16 -17 -12 -11 -11 -9 -9 -9 -9 -8 -8 -8
-15 -15 -15 -16 -18 -21 -22 -23 -24 -24 -23 -23 -22 -22 -22 -22 -22 -21 -22 -22 -21 -21 -20 -20 -20 -19 -18 -19 -18 -18 -18 -17 -18 -19 -11 -12 -12 -10 -9 -10 -9 -9 -9 -8 -9
-15 -15 -16 -18 -21 -22 -23 -24 -25 -25 -24 -23 -22 -22 -22 -21 -21 -21 -21 -21 -21 -21 -20 -20 -19 -19 -19 -18 -17 -17 -18 -17 -16 -13 -11 -13 -11 -12 -9 -9 -10 -9 -9 -9 -9
-15 -16 -17 -20 -22 -23 -24 -25 -25 -24 -24 -23 -22 -22 -22 -21 -21 -21 -21 -21 -20 -20 -20 -20 -19 -19 -19 -19 -19 -18 -18 -18 -17 -16 -16 -15 -13 -11 -11 -10 -10 -10 -10 -10 -9
-16 -16 -18 -22 -23 -24 -25 -26 -25 -24 -23 -23 -22 -22 -22 -21 -21 -21 -21 -20 -20 -20 -20 -19 -19 -19 -19 -19 -20 -18 -18 -18 -18 -17 -16 -16 -14 -13 -12 -11 -11 -10 -10 -10 -10
-16 -17 -19 -22 -24 -25 -25 -25 -24 -24 -23 -23 -22 -22 -22 -21 -21 -21 -21 -20 -20 -19 -19 -19 -19 -19 -19 -19 -18 -19 -19 -18 -18 -17 -16 -15 -15 -14 -12 -12 -12 -11 -11 -11 -11
-16 -18 -21 -23 -24 -24 -24 -24 -24 -23 -23 -22 -22 -22 -22 -21 -21 -21 -20 -20 -20 -19 -18 -18 -19 -18 -18 -19 -19 -20 -18 -18 -18 -17 -16 -15 -15 -14 -13 -12 -13 -12 -12 -12 -12
-17 -19 -22 -23 -23 -24 -24 -24 -23 -23 -23 -22 -22 -22 -21 -21 -21 -20 -20 -19 -19 -18 -18 -18 -18 -18 -19 -19 -18 -18 -20 -18 -18 -17 -16 -15 -15 -14 -14 -13 -13 -13 -12 -12 -12
-17 -20 -22 -23 -23 -23 -23 -23 -23 -22 -22 -22 -21 -21 -21 -21 -21 -20 -20 -19 -19 -19 -18 -18 -18 -17 -17 -17 -17 -17 -18 -18 -18 -17 -17 -15 -15 -14 -14 -13 -13 -13 -13 -13 -14
-18 -20 -22 -22 -22 -22 -22 -22 -22 -22 -22 -20 -21 -21 -20 -20 -20 -20 -19 -19 -19 -19 -18 -17 -17 -17 -17 -18 -18 -18 -17 -19 -18 -17 -16 -16 -15 -15 -14 -14 -14 -14 -14 -14 -15
-19 -20 -21 -21 -21 -22 -22 -22 -21 -21 -20 -20 -20 -20 -19 -19 -19 -19 -18 -18 -19 -18 -18 -17 -17 -17 -17 -17 -17 -17 -17 -18 -18 -17 -17 -16 -15 -16 -15 -15 -15 -15 -15 -15 -15
-18 -20 -21 -20 -21 -21 -21 -21 -20 -20 -20 -19 -20 -19 -19 -19 -19 -18 -18 -18 -18 -17 -17 -17 -17 -17 -17 -17 -17 -17 -17 -17 -17 -17 -16 -15 -15 -16 -15 -15 -15 -15 -15 -15 -15
Height
5828 5826 5823 5819 5817 5814 5810 5808 5805 5803 5802 5801 5800 5799 5798 5797 5796 5794 5794 5793 5792 5794 5793 5794 5795 5797 5799 5801 5803 5803 5805 5809 5815 5826 5832 5830 5836 5836 5840 5842 5845 5846 5853 5849 5862
5825 5822 5818 5814 5810 5806 5801 5799 5796 5795 5793 5791 5789 5788 5788 5787 5785 5785 5784 5783 5782 5784 5785 5785 5786 5787 5789 5791 5793 5795 5798 5805 5808 5813 5821 5822 5824 5824 5828 5832 5834 5837 5839 5849 5853
5820 5816 5812 5808 5804 5799 5794 5790 5786 5784 5781 5779 5777 5776 5777 5777 5775 5775 5772 5773 5773 5773 5775 5776 5776 5778 5779 5782 5785 5789 5792 5797 5800 5805 5808 5809 5812 5814 5817 5821 5826 5830 5833 5836 5843
5815 5811 5806 5801 5796 5791 5787 5783 5779 5775 5772 5768 5765 5763 5763 5764 5764 5764 5758 5760 5761 5762 5763 5765 5766 5766 5769 5772 5775 5778 5781 5785 5789 5794 5798 5800 5800 5804 5806 5813 5814 5818 5821 5829 5833
5808 5803 5798 5793 5789 5784 5780 5775 5770 5765 5761 5755 5751 5748 5748 5748 5753 5744 5744 5747 5748 5749 5750 5752 5754 5755 5756 5760 5764 5768 5772 5775 5780 5785 5787 5788 5792 5795 5798 5801 5804 5809 5813 5820 5827
5800 5795 5789 5784 5778 5774 5769 5762 5756 5751 5746 5740 5735 5732 5730 5734 5730 5728 5724 5728 5731 5734 5733 5736 5739 5741 5744 5747 5753 5756 5761 5765 5771 5775 5778 5781 5784 5787 5791 5793 5796 5801 5806 5811 5819
5792 5787 5781 5774 5767 5761 5755 5749 5742 5736 5729 5722 5715 5710 5711 5716 5703 5704 5706 5706 5709 5714 5717 5720 5722 5725 5733 5734 5740 5744 5749 5755 5761 5765 5770 5773 5777 5781 5783 5786 5790 5794 5799 5803 5810
5782 5775 5768 5761 5754 5746 5739 5731 5724 5717 5708 5700 5694 5685 5688 5686 5679 5679 5680 5684 5686 5690 5696 5701 5703 5709 5714 5721 5726 5732 5735 5743 5750 5754 5759 5763 5772 5771 5775 5778 5785 5786 5792 5797 5803
5771 5764 5756 5747 5738 5729 5720 5712 5703 5697 5686 5675 5666 5656 5658 5658 5651 5650 5654 5659 5661 5665 5669 5676 5682 5690 5696 5704 5710 5719 5728 5732 5736 5741 5748 5754 5760 5764 5767 5772 5776 5781 5784 5790 5796
5760 5751 5740 5730 5719 5709 5698 5686 5677 5668 5661 5643 5631 5624 5622 5616 5615 5622 5625 5630 5634 5636 5644 5649 5657 5666 5677 5684 5698 5708 5710 5715 5721 5727 5735 5743 5748 5757 5758 5765 5768 5775 5778 5783 5787
5747 5736 5724 5712 5700 5686 5676 5663 5649 5635 5631 5613 5589 5579 5589 5575 5584 5586 5593 5600 5604 5609 5617 5623 5630 5647 5669 5670 5681 5683 5692 5702 5706 5715 5722 5733 5735 5744 5750 5756 5761 5767 5773 5776 5781
5733 5722 5710 5694 5680 5666 5651 5634 5616 5595 5588 5583 5565 5552 5557 5554 5559 5559 5566 5573 5578 5583 5590 5595 5613 5640 5633 5645 5658 5670 5679 5688 5695 5700 5709 5717 5725 5731 5741 5748 5753 5759 5766 5770 5775
5720 5706 5693 5678 5663 5645 5627 5606 5587 5571 5559 5555 5546 5540 5539 5539 5541 5542 5550 5553 5558 5565 5567 5580 5603 5605 5613 5626 5638 5652 5664 5672 5680 5686 5695 5704 5711 5721 5733 5739 5746 5753 5760 5765 5768
5705 5691 5677 5664 5644 5622 5600 5583 5569 5555 5547 5543 5540 5538 5538 5538 5540 5538 5540 5543 5547 5554 5559 5566 5581 5583 5595 5607 5622 5635 5653 5657 5665 5674 5685 5691 5704 5709 5722 5729 5738 5745 5751 5758 5761
5692 5677 5661 5640 5625 5602 5582 5567 5555 5548 5546 5542 5539 5538 5535 5536 5535 5539 5536 5540 5545 5548 5551 5562 5566 5574 5579 5598 5608 5624 5630 5642 5650 5663 5670 5678 5691 5702 5711 5719 5729 5737 5743 5749 5755
5678 5663 5646 5626 5605 5587 5569 5556 5548 5546 5543 5541 5537 5534 5534 5531 5532 5533 5533 5535 5538 5543 5547 5552 5555 5559 5573 5582 5593 5608 5615 5626 5637 5649 5655 5672 5685 5691 5701 5712 5719 5727 5736 5742 5747
5666 5650 5629 5607 5590 5572 5558 5549 5546 5543 5542 5540 5537 5535 5532 5531 5529 5528 5529 5532 5535 5539 5543 5546 5550 5553 5559 5567 5579 5591 5604 5614 5623 5633 5654 5664 5670 5688 5689 5700 5710 5719 5726 5732 5737
5655 5637 5616 5595 5576 5562 5552 5546 5542 5538 5537 5537 5536 5534 5531 5530 5528 5526 5527 5529 5532 5536 5540 5542 5548 5549 5551 5557 5569 5580 5593 5602 5612 5626 5646 5649 5658 5671 5679 5692 5700 5710 5718 5724 5729
5646 5627 5605 5583 5569 5558 5551 5544 5538 5536 5537 5537 5536 5533 5531 5528 5526 5525 5525 5528 5531 5533 5538 5541 5545 5547 5550 5557 5564 5573 5583 5605 5620 5628 5641 5642 5651 5659 5668 5679 5690 5699 5707 5714 5720
5639 5619 5598 5577 5564 5557 5549 5544 5540 5538 5538 5537 5535 5533 5530 5527 5525 5523 5525 5528 5530 5533 5536 5540 5542 5545 5547 5554 5563 5571 5589 5596 5608 5620 5631 5639 5646 5655 5663 5671 5681 5690 5700 5707 5714
5627 5609 5589 5573 5564 5557 5553 5546 5543 5541 5541 5540 5538 5536 5532 5527 5527 5526 5526 5527 5527 5532 5533 5537 5539 5544 5546 5549 5557 5567 5575 5590 5606 5616 5626 5636 5645 5647 5658 5667 5676 5685 5693 5701 5708
5624 5603 5586 5575 5568 5561 5556 5551 5547 5545 5544 5542 5541 5538 5534 5530 5528 5526 5525 5524 5525 5526 5529 5532 5536 5539 5547 5552 5559 5569 5576 5587 5598 5609 5624 5632 5636 5640 5649 5660 5671 5679 5687 5695 5702
5620 5605 5587 5579 5574 5566 5560 5554 5551 5549 5547 5546 5543 5541 5537 5532 5529 5527 5524 5524 5524 5525 5527 5531 5535 5537 5542 5549 5553 5561 5573 5585 5598 5608 5615 5625 5629 5636 5649 5658 5666 5674 5682 5689 5696
5617 5603 5591 5582 5576 5571 5567 5561 5556 5552 5549 5546 5543 5541 5539 5536 5531 5530 5527 5525 5525 5523 5527 5529 5531 5535 5541 5550 5555 5559 5568 5581 5595 5604 5614 5621 5626 5635 5644 5653 5662 5669 5677 5685 5692
5616 5602 5593 5587 5582 5576 5571 5566 5562 5558 5554 5548 5546 5542 5538 5537 5535 5531 5529 5528 5527 5526 5528 5527 5533 5538 5542 5549 5557 5565 5572 5580 5591 5602 5610 5616 5623 5633 5642 5651 5659 5668 5675 5682 5690
5616 5606 5598 5591 5586 5580 5576 5570 5566 5561 5555 5552 5548 5542 5539 5537 5534 5533 5532 5533 5531 5530 5529 5533 5538 5541 5546 5550 5557 5564 5574 5583 5591 5597 5606 5610 5619 5630 5641 5648 5657 5665 5673 5680 5687
5616 5607 5599 5595 5590 5585 5579 5573 5567 5562 5556 5551 5548 5544 5541 5539 5536 5536 5537 5537 5535 5535 5535 5538 5541 5545 5548 5552 5557 5566 5574 5580 5589 5599 5606 5609 5619 5625 5635 5645 5654 5662 5669 5675 5682
Wind_Speed
28 30 30 31 32 33 32 32 31 33 36 37 37 35 33 35 34 34 35 37 37 34 35 34 32 31 32 37 45 45 50 56 54 48 45 49 47 53 54 56 53 53 51 56 44
31 33 33 34 35 37 38 37 37 37 36 36 36 39 41 39 40 39 39 38 41 40 38 39 39 38 35 35 35 43 49 45 44 43 40 47 49 52 53 58 61 57 56 51 50
33 34 35 35 35 37 39 40 41 41 42 42 42 41 38 38 43 43 44 44 44 44 42 41 44 44 41 40 38 36 36 41 45 39 40 47 49 55 53 56 61 61 58 55 54
34 35 36 37 39 40 41 43 46 47 47 48 48 48 47 44 41 42 51 48 48 50 50 47 46 46 46 44 44 41 39 38 38 39 43 45 47 54 57 54 58 63 65 59 55
35 37 38 39 40 42 45 48 50 51 52 53 56 57 55 54 45 51 54 52 52 52 53 53 52 52 52 51 49 45 44 41 38 34 40 48 48 51 58 56 59 59 63 62 58
36 37 39 42 44 45 47 50 52 54 58 61 62 62 62 57 57 57 59 57 55 54 56 57 54 55 57 57 54 52 50 48 43 40 39 40 48 51 56 57 59 60 60 59 58
45 43 44 47 51 52 51 53 54 56 59 63 67 69 69 64 70 69 66 64 62 60 58 59 60 58 56 58 59 59 56 53 50 48 44 40 42 47 54 56 55 54 56 59 55
52 51 53 57 60 63 64 66 67 66 65 66 70 74 73 73 75 75 75 74 70 70 65 64 65 65 62 59 59 59 62 56 54 53 50 48 40 45 48 55 53 53 49 53 53
57 58 60 63 65 67 67 69 70 73 74 75 78 80 78 76 80 82 80 78 76 73 71 67 69 68 67 65 64 60 58 58 58 57 54 52 47 45 45 47 50 51 51 46 47
63 64 65 68 70 73 74 75 75 75 77 82 84 85 83 84 80 77 82 84 83 81 78 75 70 72 71 70 65 62 64 62 62 60 57 56 53 44 44 41 43 43 48 48 46
66 69 70 72 74 75 76 78 84 90 86 82 79 83 68 74 74 71 70 74 80 81 81 75 70 73 67 70 69 69 65 66 65 63 60 52 54 48 46 40 39 40 42 45 47
71 72 74 73 74 76 85 91 93 87 77 56 58 59 50 49 46 45 48 57 67 75 72 73 76 68 66 70 71 71 70 68 64 66 63 55 55 54 44 45 44 40 39 39 40
72 74 72 74 80 89 95 91 77 69 62 47 39 29 23 20 24 36 38 45 52 56 67 65 62 61 64 66 71 72 71 71 69 65 62 55 56 54 46 44 44 42 38 37 38
72 73 75 81 88 96 92 76 66 54 37 23 16 9 10 5 2 5 10 25 38 42 45 55 52 57 60 63 66 69 67 68 68 65 61 57 52 54 47 48 45 41 39 40 41
74 74 79 87 94 93 78 65 49 33 15 21 11 14 9 8 12 9 12 12 17 19 22 35 43 45 51 59 63 65 63 66 66 60 55 59 55 51 50 48 47 47 45 42 38
74 76 85 94 96 78 64 50 33 20 11 12 13 10 10 7 6 13 19 18 17 19 20 18 27 41 47 45 56 46 47 60 60 55 45 57 55 50 56 47 45 46 46 43 40
74 82 91 96 82 66 52 38 25 14 12 10 5 9 10 11 15 7 5 16 19 20 22 22 21 22 41 47 49 52 46 43 45 43 62 59 57 53 57 50 46 43 45 45 40
78 87 94 87 69 55 42 27 20 18 4 11 11 12 17 18 10 6 5 4 12 18 16 15 17 17 31 46 48 49 53 54 54 66 65 55 60 53 59 53 49 45 44 41 37
81 90 92 73 59 43 37 31 17 9 6 6 11 13 13 23 12 8 2 6 9 15 15 13 13 21 21 30 40 44 49 45 31 42 36 50 53 62 56 53 50 48 45 42 41
83 91 83 64 47 35 37 25 18 8 11 12 12 15 22 25 15 7 7 9 10 11 14 12 13 21 16 26 35 39 35 43 32 39 38 40 49 47 53 48 46 46 42 40 37
87 87 75 53 35 36 28 20 17 6 11 12 14 19 20 26 13 11 6 11 14 4 16 12 12 15 20 31 34 40 37 47 36 32 38 35 30 42 44 43 43 37 39 35 34
86 81 63 42 34 32 22 21 14 13 14 14 17 21 21 21 18 7 9 11 4 8 5 16 19 14 18 24 27 34 44 43 36 35 34 27 37 47 43 41 36 35 35 35 34
82 71 45 38 32 25 29 21 16 14 13 15 16 21 19 23 18 12 7 2 8 16 7 8 20 17 25 38 40 40 41 42 36 30 30 27 38 42 37 35 36 35 35 34 33
79 62 36 34 33 31 30 23 16 14 13 16 22 21 19 15 21 14 3 4 10 14 12 3 10 19 23 30 37 36 44 41 38 33 30 23 34 42 36 37 39 39 38 36 35
75 54 32 30 34 31 29 25 17 11 16 16 17 21 21 10 13 12 3 4 16 16 13 7 21 18 13 29 36 26 35 39 40 29 24 32 32 39 40 38 39 39 39 38 40
67 50 31 28 29 29 27 27 23 21 17 14 15 16 18 17 13 4 4 4 8 14 17 29 21 13 16 20 38 34 32 35 41 27 30 30 33 34 40 40 41 39 38 36 35
63 44 26 21 20 28 29 28 22 21 22 23 16 14 15 12 7 4 6 5 8 15 11 21 16 15 12 18 29 30 33 31 38 32 26 23 32 38 41 41 42 42 39 36 34
Wind_Direction
328 325 320 316 314 311 307 302 293 283 273 269 266 267 264 263 263 261 260 260 261 254 255 255 255 253 247 242 239 237 236 234 237 233 232 234 235 235 232 233 234 237 235 238 241
322 322 317 311 307 304 301 297 294 291 287 281 275 268 263 261 260 255 254 258 257 257 257 255 252 252 250 248 245 243 238 237 241 237 233 236 232 234 233 232 234 235 238 237 236
318 316 311 308 306 303 299 296 293 288 285 283 281 277 271 263 255 255 257 254 255 256 253 253 252 251 249 249 244 243 243 242 241 236 228 228 229 230 234 233 234 234 235 238 237
324 322 317 312 306 299 296 293 292 290 287 285 282 280 278 271 262 257 254 256 252 252 253 251 252 251 248 246 249 247 244 244 240 234 232 227 227 226 230 233 234 235 234 235 236
331 328 323 317 311 307 303 298 294 290 286 281 280 278 275 273 273 266 259 255 254 252 250 249 250 250 249 248 249 244 244 243 243 236 230 229 226 229 228 231 234 235 238 237 234
330 323 318 313 310 305 300 295 292 289 285 283 279 275 273 271 272 266 264 262 255 250 251 249 248 246 246 247 247 246 243 242 241 239 235 231 228 229 229 229 234 236 238 239 238
334 328 322 317 316 312 306 301 297 293 288 283 279 275 272 273 269 267 263 261 259 253 246 247 248 245 245 246 245 246 246 244 239 242 240 235 231 228 231 234 236 237 239 240 241
328 326 322 318 315 312 308 305 302 298 291 285 280 277 275 269 267 265 262 263 260 256 250 246 244 244 244 242 243 244 244 244 243 240 241 239 228 231 231 233 234 241 241 244 246
326 324 320 316 312 310 308 304 299 297 294 290 286 282 277 270 265 264 261 257 257 256 254 247 243 241 240 242 242 241 245 243 244 243 243 240 235 233 232 235 237 238 243 244 246
325 322 318 316 314 313 310 307 304 301 299 294 288 282 280 278 274 265 260 257 255 254 251 250 243 238 237 239 244 243 240 241 240 241 236 237 239 237 239 234 240 237 241 243 245
325 322 322 319 317 313 312 311 308 306 302 297 291 284 279 276 269 265 259 253 251 250 249 247 245 245 246 241 236 237 237 237 239 238 241 239 240 238 234 235 233 235 234 242 244
326 324 323 319 317 317 317 315 314 310 306 301 292 289 282 275 270 263 250 244 242 245 245 245 243 244 234 232 234 233 235 238 236 239 239 239 239 241 236 231 232 232 229 233 238
327 325 323 321 322 322 321 320 318 315 314 311 303 301 313 294 266 252 250 242 241 241 243 242 241 236 231 229 230 230 231 233 235 236 236 238 239 239 236 232 231 234 232 231 233
327 326 325 327 326 325 323 324 323 320 326 329 327 327 313 66 258 200 241 236 241 243 243 242 235 237 230 226 225 228 228 233 235 237 235 234 236 238 232 231 227 229 231 231 235
328 330 331 328 328 327 328 328 327 330 345 330 349 348 331 262 250 234 236 220 212 213 238 244 238 236 234 230 225 224 224 226 232 232 237 234 229 234 232 232 230 227 229 231 234
332 335 332 330 330 331 331 332 332 338 324 332 330 322 346 342 240 222 236 221 227 223 218 223 228 228 230 222 219 217 218 224 225 226 229 226 227 228 235 233 231 231 232 232 235
336 336 334 332 334 336 336 336 332 330 292 314 344 329 339 324 341 313 250 231 226 224 229 227 209 218 219 214 212 212 208 211 215 210 222 225 226 222 230 226 227 228 229 230 229
336 337 335 335 337 341 341 337 328 323 301 355 5 8 20 360 336 324 279 249 218 220 221 232 214 204 220 213 213 208 209 211 214 217 217 219 220 221 228 226 227 228 229 227 224
340 338 338 339 342 346 348 352 3 5 50 91 5 3 9 11 2 316 316 201 197 211 217 219 218 216 215 208 201 203 206 205 209 218 206 219 214 218 222 224 221 222 222 221 223
342 340 341 344 348 352 357 353 27 83 40 13 358 14 11 16 34 28 127 153 176 188 198 205 214 216 191 193 203 205 201 173 190 202 199 217 218 222 218 218 216 218 218 218 219
341 342 347 350 357 357 4 23 34 47 20 9 358 4 1 13 50 53 131 163 137 172 213 209 199 197 204 195 199 188 184 182 186 193 195 204 204 210 218 219 217 211 212 208 209
343 347 349 1 5 2 14 16 44 37 11 2 350 359 6 7 30 34 175 170 254 35 2 188 210 207 204 191 192 195 182 173 179 185 188 200 206 208 211 207 205 200 199 200 202
346 350 357 10 13 16 7 30 35 28 4 358 345 350 356 356 9 21 243 349 65 16 94 153 215 204 183 187 188 182 191 181 178 186 186 182 199 205 206 196 192 194 195 199 202
348 355 5 12 14 11 11 22 27 11 355 344 329 338 350 342 348 4 304 256 52 34 27 191 203 187 202 183 183 181 175 183 177 178 195 192 201 198 190 190 191 191 193 197 203
351 357 5 10 8 11 15 25 30 18 356 329 333 331 344 3 347 355 220 307 31 47 75 120 152 175 184 183 177 166 178 175 181 167 175 205 192 197 191 189 188 189 192 200 201
352 357 1 9 9 8 12 9 9 354 348 345 344 326 345 345 354 19 218 333 39 84 55 140 144 133 164 177 174 179 180 181 187 191 180 202 188 190 190 188 186 189 195 201 204
352 359 358 2 13 3 6 2 3 360 349 13 9 343 344 354 14 78 95 61 99 87 115 146 136 133 144 176 177 184 180 185 182 174 183 181 185 181 186 191 190 191 190 195 200